Oakland, CA

12:30 PM PST on November 18, 2017 (GMT -0800)
Metro Oakland International

Weather History for KOAK - May, 2014

Change the Weather History Date:

Wednesday, May 14, 2014

  Actual Average Record
Temperature  
Mean Temperature 75 °F 59 °F  
Max Temperature 90 °F 67 °F 90 °F (2014)
Min Temperature 59 °F 51 °F 42 °F (1955)
Degree Days  
Heating Degree Days 0 6  
Month to date heating degree days 35 87  
Since 1 July heating degree days 2210 2673  
Cooling Degree Days 10 0  
Month to date cooling degree days 26 0  
Year to date cooling degree days 39 6  
Growing Degree Days 24 (Base 50)    
Moisture  
Dew Point 46 °F    
Average Humidity 43    
Maximum Humidity 67    
Minimum Humidity 18    
Precipitation  
Precipitation 0.00 in 0.03 in 0.31 in (1949)
Month to date precipitation T 0.43  
Year to date precipitation 7.95 12.79  
Since 1 July precipitation 10.02  
Sea Level Pressure  
Sea Level Pressure 30.09 in    
Wind  
Wind Speed 6 mph (WNW)    
Max Wind Speed 15 mph    
Max Gust Speed 17 mph    
Visibility 10 miles    
Events      
T = Trace of Precipitation, MM = Missing Value Source: NWS Daily Summary

Daily Weather History Graph

Daily Weather History Graph

Search for Another Location

Airport or City:

Trip Planner

Search our weather history database for the weather conditions in past years. The results will help you decide how hot, cold, wet, or windy it might be!

Date:

Astronomy

May. 14, 2014 Rise Set
Actual Time 5:59 AM PDT 8:11 PM PDT
Civil Twilight 5:30 AM PDT 8:40 PM PDT
Nautical Twilight 4:54 AM PDT 9:16 PM PDT
Astronomical Twilight 4:15 AM PDT 9:55 PM PDT
Moon 8:22 PM PDT (5/14) 6:01 AM PDT (5/14)
Length of Visible Light 15h 09m
Length of Day
14h 11m
Full, 100% of the Moon is Illuminated
May 14
Full
May 14
Full
May 21
Last Quarter
May 28
New
Jun 5
First Quarter

Hourly Weather History & Observations

Time (PDT) Temp. Dew Point Humidity Pressure Visibility Wind Dir Wind Speed Gust Speed Precip Events Conditions
12:53 AM 64.9 °F 53.1 °F 65% 30.13 in 10.0 mi SSE 5.8 mph - N/A   Clear
1:53 AM 64.4 °F 44.6 °F 49% 30.13 in 10.0 mi East 4.6 mph - N/A   Clear
2:53 AM 62.1 °F 42.1 °F 48% 30.11 in 10.0 mi East 3.5 mph - N/A   Clear
3:53 AM 60.1 °F 42.1 °F 51% 30.10 in 10.0 mi East 4.6 mph - N/A   Partly Cloudy
4:53 AM 62.6 °F 41.0 °F 45% 30.10 in 10.0 mi Calm Calm - N/A   Partly Cloudy
5:53 AM 59.0 °F 41.0 °F 51% 30.10 in 10.0 mi NE 3.5 mph - N/A   Scattered Clouds
6:53 AM 63.0 °F 45.0 °F 52% 30.11 in 10.0 mi NW 3.5 mph - N/A   Partly Cloudy
8:53 AM 72.0 °F 46.0 °F 40% 30.12 in 10.0 mi SW 3.5 mph - N/A   Partly Cloudy
9:53 AM 73.0 °F 48.9 °F 42% 30.12 in 10.0 mi West 6.9 mph - N/A   Partly Cloudy
10:53 AM 75.0 °F 45.0 °F 34% 30.12 in 10.0 mi West 9.2 mph - N/A   Scattered Clouds
11:53 AM 79.0 °F 43.0 °F 28% 30.12 in 10.0 mi West 6.9 mph - N/A   Scattered Clouds
12:53 PM 86.0 °F 37.9 °F 18% 30.10 in 10.0 mi West 10.4 mph - N/A   Scattered Clouds
1:53 PM 89.6 °F 46.4 °F 22% 30.09 in 10.0 mi WNW 11.5 mph - N/A   Scattered Clouds
2:53 PM 89.1 °F 46.9 °F 23% 30.09 in 10.0 mi WNW 12.7 mph - N/A   Scattered Clouds
3:53 PM 88.0 °F 48.0 °F 25% 30.07 in 10.0 mi WNW 11.5 mph - N/A   Scattered Clouds
4:53 PM 84.0 °F 48.9 °F 29% 30.06 in 10.0 mi WNW 9.2 mph - N/A   Scattered Clouds
5:53 PM 86.0 °F 39.0 °F 19% 30.05 in 10.0 mi WNW 6.9 mph - N/A   Scattered Clouds
6:53 PM 82.0 °F 46.0 °F 28% 30.04 in 10.0 mi NW 6.9 mph - N/A   Scattered Clouds
7:53 PM 79.0 °F 44.1 °F 29% 30.05 in 10.0 mi West 8.1 mph - N/A   Partly Cloudy
8:53 PM 75.0 °F 51.1 °F 43% 30.06 in 10.0 mi West 6.9 mph - N/A   Partly Cloudy
9:53 PM 71.1 °F 53.1 °F 53% 30.07 in 10.0 mi West 5.8 mph - N/A   Partly Cloudy
10:53 PM 69.1 °F 48.9 °F 49% 30.08 in 10.0 mi NW 4.6 mph - N/A   Partly Cloudy
11:53 PM 70.0 °F 46.9 °F 44% 30.09 in 10.0 mi Calm Calm - N/A   Clear